TimeMST,TemperatureF,Dew PointF,Humidity,Sea Level PressureIn,VisibilityMPH,Wind Direction,Wind SpeedMPH,Gust SpeedMPH,PrecipitationIn,Events,Conditions,WindDirDegrees,DateUTC
12:56 AM,39.0,26.1,60,29.97,-9999.0,West,5.8,-,N/A,,Overcast,260,2012-11-11 07:56:00
1:56 AM,36.0,25.0,64,29.99,-9999.0,WSW,10.4,-,N/A,,Partly Cloudy,250,2012-11-11 08:56:00
2:56 AM,32.0,23.0,69,30.01,-9999.0,WSW,6.9,-,N/A,,Clear,250,2012-11-11 09:56:00
3:56 AM,33.1,23.0,66,30.02,-9999.0,SW,6.9,-,N/A,,Clear,230,2012-11-11 10:56:00
4:56 AM,30.9,21.9,69,30.04,-9999.0,SW,5.8,-,N/A,,Clear,230,2012-11-11 11:56:00
5:56 AM,33.1,21.0,61,30.07,-9999.0,SSW,4.6,-,N/A,,Clear,200,2012-11-11 12:56:00
6:56 AM,33.1,19.0,56,30.10,-9999.0,SSW,3.5,-,N/A,,Clear,210,2012-11-11 13:56:00
7:56 AM,37.9,18.0,45,30.12,-9999.0,Calm,Calm,-,N/A,,Clear,0,2012-11-11 14:56:00
8:56 AM,41.0,15.1,35,30.13,-9999.0,Variable,4.6,-,N/A,,Clear,0,2012-11-11 15:56:00
9:56 AM,43.0,12.0,28,30.14,-9999.0,East,6.9,-,N/A,,Clear,80,2012-11-11 16:56:00
10:56 AM,46.0,12.0,25,30.14,-9999.0,East,6.9,16.1,N/A,,Clear,90,2012-11-11 17:56:00
11:56 AM,46.9,8.1,21,30.12,-9999.0,Calm,Calm,-,N/A,,Clear,0,2012-11-11 18:56:00
12:56 PM,50.0,8.1,18,30.09,-9999.0,NNE,6.9,-,N/A,,Clear,30,2012-11-11 19:56:00
1:56 PM,51.1,8.1,18,30.09,-9999.0,Calm,Calm,-,N/A,,Clear,0,2012-11-11 20:56:00
2:56 PM,52.0,8.1,17,30.10,-9999.0,East,8.1,-,N/A,,Clear,80,2012-11-11 21:56:00
3:56 PM,51.8,6.8,16,30.10,-9999.0,NNE,5.8,-,N/A,,Clear,30,2012-11-11 22:56:00
6:56 PM,39.0,8.1,28,30.21,-9999.0,ESE,3.5,-,N/A,,Clear,120,2012-11-12 01:56:00
7:56 PM,36.0,8.1,31,30.22,-9999.0,SE,10.4,-,N/A,,Clear,130,2012-11-12 02:56:00
7:58 PM,-9999,-9999,N/A,-9999,-9999.0,North,-9999.0,-,N/A,,Unknown,0,2012-11-12 02:58:00
8:56 PM,37.9,8.1,29,30.22,-9999.0,ESE,10.4,-,N/A,,Clear,120,2012-11-12 03:56:00
9:56 PM,36.0,9.0,33,30.22,-9999.0,ESE,6.9,-,N/A,,Clear,120,2012-11-12 04:56:00
10:56 PM,34.0,10.9,38,30.22,-9999.0,ESE,10.4,-,N/A,,Clear,120,2012-11-12 05:56:00